Theta_e
303 305 307 311 322 319 321 317 318 321 319 313 309 313 317 317 322 324 317 323 332 337 340 342 342 343 343 342 341 340 339 339 341 340 336 339 339 339 338 337 336 337 341 340 336 338 336 333 329
303 306 308 306 310 315 312 315 318 317 315 306 305 313 315 319 311 312 316 315 328 334 339 343 342 343 343 342 341 340 339 339 341 340 337 336 339 339 337 336 336 336 340 339 336 333 335 333 330
302 306 304 311 305 305 304 305 312 307 303 305 306 311 310 314 309 310 311 310 317 331 336 339 342 342 343 342 341 339 338 339 340 340 340 339 339 338 336 336 336 336 339 340 336 333 335 331 326
302 301 298 302 305 304 300 305 304 301 302 303 304 304 309 306 304 304 309 307 309 314 330 336 341 341 339 339 340 339 337 339 340 340 340 339 339 338 337 337 336 335 338 338 337 333 334 330 326
299 296 298 300 300 301 305 304 299 299 300 300 300 304 310 300 301 302 305 303 304 307 314 324 335 338 340 340 338 339 338 337 338 340 340 340 339 338 337 337 336 335 337 336 334 331 331 330 325
296 294 296 297 297 300 297 296 296 297 297 298 300 301 306 299 300 300 300 300 301 303 306 309 315 329 333 337 339 339 338 336 336 338 339 339 339 338 338 338 336 334 335 335 333 332 331 329 325
295 294 294 295 295 296 297 296 296 297 297 299 296 302 305 299 298 299 300 300 300 301 302 302 302 304 315 321 332 335 338 338 336 336 337 337 338 338 337 337 336 335 334 333 331 331 330 327 328
293 293 297 295 295 297 296 298 297 298 299 296 297 300 300 298 298 299 300 300 300 300 301 301 301 301 302 304 313 314 329 336 338 337 337 337 338 338 336 335 334 334 332 329 330 329 329 325 330
294 296 296 297 296 296 297 298 297 297 296 296 297 297 295 295 296 298 299 300 300 300 300 300 300 301 301 302 302 305 308 323 332 336 337 337 336 337 336 335 333 332 329 329 330 328 327 327 330
296 295 296 296 296 297 298 298 297 298 297 297 296 295 293 293 293 293 294 295 296 298 300 299 300 300 301 301 301 302 304 307 322 331 335 337 336 336 337 335 333 331 330 330 329 327 327 331 332
297 297 296 298 297 298 298 297 297 297 297 295 295 292 292 291 291 292 292 292 293 295 298 299 300 300 300 301 301 301 302 304 306 317 330 334 335 336 335 334 332 330 330 332 329 327 330 331 332
297 297 297 297 298 298 298 297 297 296 294 292 290 290 290 290 290 290 291 291 292 293 295 298 298 299 301 301 301 302 302 302 303 305 318 329 331 335 335 333 331 330 330 332 330 330 329 331 331
297 297 297 297 297 296 297 297 297 292 290 290 290 289 289 290 289 289 290 290 292 293 295 297 298 299 300 300 301 303 302 302 301 302 304 313 326 331 333 333 330 329 329 331 331 332 331 331 330
297 297 297 297 298 297 296 295 295 293 289 289 288 288 289 289 289 289 289 290 291 292 295 297 297 298 299 300 301 302 301 301 301 301 302 303 315 326 332 332 332 330 326 327 332 331 331 331 329
298 298 297 296 296 296 294 295 296 289 289 288 287 286 287 288 288 289 288 289 290 292 294 297 297 296 298 300 302 303 301 301 301 301 301 302 306 322 330 331 332 330 323 324 329 330 329 331 330
296 296 296 296 296 296 294 296 293 288 288 287 286 286 286 287 287 287 287 288 291 292 294 297 297 295 298 300 302 303 302 302 301 301 301 302 303 312 325 331 331 328 326 326 329 330 329 329 328
295 297 296 296 295 295 295 295 293 289 288 287 287 286 286 286 286 285 286 287 290 292 294 296 295 296 299 300 301 301 301 302 302 301 301 302 303 304 320 327 330 330 330 329 329 329 328 327 326
298 297 296 297 295 294 295 296 292 290 287 287 286 285 285 285 285 284 285 286 289 291 293 295 300 302 303 302 300 301 302 302 301 301 303 303 305 305 312 324 328 328 329 328 328 327 327 326 326
296 297 297 296 295 293 294 294 293 290 287 287 286 285 284 284 284 284 284 285 287 289 291 293 297 299 300 302 301 300 301 301 301 302 303 303 307 309 305 320 327 327 328 327 325 327 325 324 325
298 298 297 295 294 293 293 294 290 290 288 287 286 284 284 283 283 283 284 285 286 288 289 291 294 296 297 298 300 304 304 303 303 303 304 311 314 319 313 317 321 327 326 323 325 325 325 324 324
297 297 296 296 294 293 294 292 290 290 289 287 285 283 283 282 283 283 283 284 285 286 287 289 292 293 294 295 298 302 303 305 305 306 309 310 316 318 322 323 324 326 326 325 325 325 325 324 323
292 295 294 294 291 295 290 294 290 289 288 286 284 282 281 282 282 282 282 283 284 285 286 287 290 291 292 293 296 299 301 303 305 308 308 309 311 315 322 324 324 327 326 325 325 325 325 324 321
293 293 292 292 290 290 295 292 290 287 288 285 282 281 280 281 282 282 282 282 283 284 285 286 288 290 290 291 293 296 299 303 307 307 308 308 309 313 320 325 326 325 325 324 324 324 324 323 321
292 290 293 289 292 288 290 294 293 287 283 282 280 279 279 281 281 281 281 282 282 283 284 285 286 287 288 289 290 292 294 297 299 298 303 302 302 304 309 316 320 322 322 320 321 319 319 318 313
290 288 289 293 290 291 293 294 292 282 282 279 278 277 278 280 280 280 281 281 281 282 283 284 284 285 285 286 286 288 290 292 291 293 293 294 294 295 298 302 302 312 312 313 314 310 309 306 306
292 285 289 294 291 292 292 294 294 282 278 274 275 274 279 279 279 280 280 280 280 281 282 282 283 283 284 284 284 285 287 288 288 289 290 289 289 290 292 293 292 295 305 303 303 301 296 300 298
292 291 290 284 285 289 292 293 286 285 284 279 275 279 278 278 279 279 279 279 280 280 281 281 281 282 282 282 282 282 283 284 285 286 287 287 288 287 290 290 287 285 297 295 293 292 288 290 289
292 291 290 286 289 289 291 294 295 286 283 280 276 278 278 278 278 278 278 278 279 279 280 280 280 280 280 280 281 280 281 282 283 284 283 284 285 286 286 286 285 283 286 287 286 283 285 286 284
290 290 290 288 289 289 291 292 284 283 280 278 277 278 277 278 277 278 277 277 277 278 279 280 280 280 280 279 279 279 279 280 281 280 280 280 282 283 285 285 283 279 280 282 281 279 280 279 278
288 283 284 288 289 289 290 289 279 280 278 278 279 278 278 278 277 276 276 276 277 277 278 279 279 279 279 279 279 278 278 279 279 279 278 279 280 281 282 282 281 284 278 280 278 277 277 277 276
Wind_Speed
9 5 5 6 3 3 3 6 1 3 1 1 4 4 5 4 3 2 13 18 20 15 9 3 8 11 14 15 18 20 21 22 23 26 27 27 27 28 27 26 26 26 22 19 17 16 16 15 14
7 3 5 2 4 2 4 4 7 1 3 8 2 4 1 3 3 8 9 24 19 14 9 4 9 11 14 15 17 20 22 23 23 24 26 27 28 28 26 26 27 25 23 21 20 18 18 16 17
3 4 3 3 3 5 4 3 2 3 7 4 3 2 0 3 5 6 14 18 17 13 9 5 9 10 13 16 17 20 21 23 23 24 25 26 28 28 27 27 27 25 23 21 21 20 19 18 17
2 5 4 3 7 5 4 2 2 5 3 3 2 6 1 4 6 12 15 17 17 17 12 9 5 4 9 13 17 19 21 22 23 24 26 26 28 29 28 28 27 25 24 22 20 20 20 20 19
5 3 3 1 5 4 3 3 4 4 5 4 6 4 1 5 9 12 14 16 17 16 15 13 5 2 3 6 14 17 19 21 23 22 26 26 27 29 29 28 27 25 23 22 22 20 20 21 20
4 2 2 3 4 2 4 5 4 4 4 9 7 6 2 8 21 21 21 18 15 14 13 14 14 8 4 1 7 11 16 18 21 23 24 27 27 28 29 28 27 26 25 24 23 23 22 22 22
5 4 2 2 4 4 1 6 2 2 5 3 4 4 4 6 20 26 25 20 15 12 11 12 13 15 10 5 3 2 12 17 19 21 22 25 27 28 29 27 26 26 25 24 23 25 24 23 24
4 3 2 2 1 5 1 5 2 2 5 6 1 1 5 9 27 30 30 21 17 14 12 13 14 12 10 10 7 7 5 7 19 22 22 23 24 26 26 26 25 26 25 24 25 26 26 26 26
2 4 2 4 4 3 3 5 3 2 4 4 4 4 12 25 27 26 24 25 21 17 14 14 13 12 10 10 8 6 7 6 8 12 25 23 25 27 27 26 26 26 26 25 26 25 26 25 26
4 3 6 3 3 3 3 2 5 4 4 4 5 13 18 18 17 19 21 18 21 21 20 17 15 11 9 7 8 8 7 6 5 7 10 23 28 28 32 32 28 27 26 26 26 26 26 25 27
1 4 1 2 3 2 2 3 3 3 3 0 8 14 14 15 18 17 16 17 20 23 21 16 15 11 8 9 10 9 9 7 6 5 6 8 15 29 23 26 25 27 28 28 26 26 26 28 30
2 2 3 4 2 2 5 3 3 3 3 4 6 9 10 12 13 17 19 19 22 26 23 18 16 12 10 11 10 11 9 9 8 5 5 6 7 18 21 25 28 29 31 30 29 29 30 28 29
2 3 4 7 9 6 3 4 5 2 6 5 7 11 12 12 14 14 16 20 21 23 25 21 18 15 12 12 10 11 13 10 9 9 8 5 9 8 14 28 32 32 32 31 30 27 32 31 30
2 4 8 7 4 2 4 5 2 1 7 7 10 11 13 13 18 17 17 22 24 25 26 25 21 15 12 13 13 11 17 14 13 10 11 9 6 11 10 18 32 32 34 33 32 30 33 33 30
2 5 6 3 2 2 5 3 1 4 6 9 10 10 12 13 20 18 20 21 24 25 28 26 23 16 12 12 14 17 15 16 14 11 11 10 10 7 7 17 29 39 35 32 32 33 36 35 33
4 1 5 2 3 1 4 6 3 2 4 7 9 9 12 13 18 21 24 24 24 25 25 27 20 18 11 10 14 16 17 15 12 12 12 12 10 9 13 16 31 37 38 37 35 35 30 30 32
4 6 6 7 4 0 2 8 3 1 3 6 7 10 11 14 17 23 26 27 25 25 24 24 16 15 12 9 11 14 17 16 14 14 13 14 11 11 14 16 23 29 33 35 32 30 31 26 24
9 8 5 13 2 0 8 16 4 1 4 6 6 9 11 13 15 24 26 26 23 25 21 22 16 12 11 9 10 11 12 15 15 14 14 12 11 13 13 17 22 27 29 30 29 23 26 28 29
6 9 17 15 9 3 8 8 7 2 2 8 10 12 12 13 17 21 24 24 22 23 21 20 17 15 15 10 5 7 10 12 14 14 12 12 12 13 16 21 22 25 29 28 26 29 27 19 30
9 15 11 8 2 5 9 12 5 3 2 3 7 11 13 15 15 20 23 23 23 22 23 19 18 16 14 13 11 8 8 13 15 13 12 10 11 12 16 19 23 28 28 25 29 30 26 20 21
9 7 6 13 10 7 5 7 1 2 4 6 9 10 12 13 15 16 21 22 23 22 25 21 18 17 15 15 14 11 10 10 12 9 10 10 11 12 17 20 22 28 28 32 32 32 27 22 35
6 5 11 14 2 3 2 4 2 2 3 7 12 12 13 14 13 14 20 23 23 23 22 20 17 15 15 13 12 10 9 8 6 9 7 11 11 11 16 20 21 31 31 30 32 31 30 25 21
10 16 8 4 3 2 2 1 4 2 3 12 14 14 14 14 13 14 18 22 21 21 21 19 17 15 16 14 11 10 9 9 8 6 6 9 7 4 9 17 23 25 26 23 24 25 27 24 25
11 4 1 3 1 3 3 2 4 2 3 7 12 13 14 15 14 15 20 21 21 22 22 21 19 17 17 15 12 10 8 7 6 6 5 7 6 3 6 14 20 23 22 20 22 22 23 22 21
7 5 4 6 4 4 2 3 7 4 5 3 10 13 12 13 14 14 15 21 24 25 25 23 20 18 18 16 14 12 8 8 8 9 9 8 9 10 11 14 15 22 21 21 18 18 19 20 22
4 2 4 5 3 6 4 5 4 5 5 5 5 8 10 12 12 13 16 20 21 23 24 23 21 19 18 15 14 12 11 12 14 14 14 15 16 15 15 19 20 25 28 29 29 30 31 29 31
3 4 2 2 2 3 3 4 3 4 5 5 8 10 9 11 11 12 17 18 20 21 22 21 20 18 17 15 14 15 16 17 19 20 19 20 21 22 23 24 23 23 37 37 39 40 39 41 39
1 4 1 2 4 5 6 5 3 3 9 12 11 9 9 10 11 11 14 17 18 18 18 18 18 19 18 17 16 17 20 24 25 25 27 25 25 27 31 31 30 28 44 45 44 43 42 44 40
1 1 1 2 3 3 4 6 4 4 4 8 9 10 8 9 10 10 13 14 16 18 19 18 20 20 20 20 19 22 24 28 32 33 32 31 34 36 39 42 39 29 41 46 46 43 44 46 43
2 5 3 3 4 3 2 7 4 5 4 3 9 11 8 8 8 8 11 13 16 18 19 18 20 20 20 21 23 25 28 32 37 37 34 34 43 43 46 42 37 48 34 44 44 41 38 42 41
Wind_Direction
8 52 105 46 89 63 244 257 310 286 354 145 279 246 266 320 277 256 331 355 347 350 343 223 203 209 202 197 193 194 195 199 193 194 191 187 186 183 184 180 173 168 163 158 153 164 159 167 165
14 64 60 86 106 171 247 245 246 230 294 308 322 318 331 293 352 322 3 349 352 354 348 284 222 214 210 207 197 196 196 196 195 195 197 197 192 189 186 183 178 174 169 164 158 163 160 171 166
36 51 81 99 125 201 221 220 288 315 302 338 355 48 333 287 318 340 350 355 7 3 0 309 233 228 216 212 204 200 198 195 195 195 198 199 196 195 190 186 184 181 176 171 164 169 168 170 172
107 34 45 124 215 249 212 163 318 323 325 42 11 298 314 64 340 345 343 358 13 15 13 5 265 252 246 238 218 206 204 202 198 197 199 203 201 200 196 192 189 186 182 177 173 177 177 175 174
56 55 86 248 253 270 256 302 337 322 313 317 337 282 254 32 26 4 0 357 4 14 15 14 8 320 195 224 239 225 212 208 206 201 202 201 203 202 200 195 193 191 187 187 183 187 190 184 177
51 87 90 225 248 247 315 344 319 9 339 320 7 327 237 30 23 5 357 347 353 1 22 22 18 14 48 203 231 233 229 219 219 212 208 207 203 203 201 200 197 198 193 191 187 191 196 190 177
113 105 206 222 279 302 312 317 72 340 317 277 298 283 324 343 355 343 338 339 340 350 5 25 30 20 10 13 42 243 233 225 225 224 223 219 215 210 207 204 202 202 199 200 195 194 198 186 180
98 83 60 249 239 266 349 349 304 360 283 316 231 266 310 340 333 327 325 327 331 336 342 356 5 12 5 0 358 352 298 236 230 227 226 228 227 219 213 209 208 207 205 205 198 197 194 187 183
118 70 211 245 169 273 3 10 299 295 268 319 313 345 349 344 343 334 334 325 328 325 330 336 338 343 345 341 351 326 334 298 260 242 229 229 230 225 219 213 211 211 207 204 201 199 194 189 190
80 132 218 208 208 253 307 323 292 311 294 285 322 329 347 352 2 0 351 337 329 322 316 321 320 324 316 317 314 321 314 324 299 261 256 230 234 232 224 212 208 213 209 205 204 201 196 191 183
115 202 187 277 251 186 254 283 230 256 259 306 306 326 339 355 358 356 343 333 322 318 309 310 312 309 310 301 310 305 301 294 304 294 284 268 254 241 244 205 212 214 210 206 205 202 200 195 188
341 284 218 267 272 312 285 260 259 236 318 336 334 333 332 346 355 345 335 330 327 323 313 306 305 296 269 287 292 290 286 290 294 291 274 240 244 240 233 207 214 218 214 209 202 199 202 200 195
151 282 308 286 297 258 258 244 236 94 323 337 347 356 346 335 338 341 332 326 325 322 316 312 309 297 278 257 272 283 284 287 286 287 281 278 238 253 235 216 219 216 218 215 207 198 201 199 198
236 273 274 279 274 268 342 281 250 215 333 359 1 355 345 336 337 334 342 330 327 322 319 314 309 303 281 252 235 233 259 276 284 284 282 268 263 226 259 228 213 208 211 221 209 201 203 200 198
275 306 315 246 322 292 342 296 229 325 352 2 356 348 346 341 339 334 333 325 322 318 316 316 311 306 283 248 231 225 237 268 273 280 284 273 261 233 230 226 207 201 209 215 228 217 210 203 200
341 62 348 255 50 11 72 270 225 328 22 356 356 348 342 338 336 333 331 327 326 320 319 319 312 311 296 247 237 242 245 256 277 283 285 280 256 245 226 203 200 198 201 209 211 212 208 202 198
13 281 282 307 177 312 186 276 193 160 35 2 349 345 341 335 337 337 332 327 328 322 325 326 321 318 309 266 247 249 257 265 272 279 282 276 263 240 230 235 210 208 199 204 208 203 209 199 197
298 306 265 284 262 137 261 257 220 263 56 356 351 342 337 336 338 335 332 327 330 328 331 341 341 337 322 290 248 243 245 259 274 277 264 274 278 249 226 235 231 222 212 201 201 203 207 202 196
262 265 272 277 271 276 255 266 261 240 28 2 2 344 335 339 334 338 335 330 334 340 340 339 344 346 349 350 315 260 251 256 263 266 277 291 278 252 228 228 212 203 195 203 211 200 186 188 189
282 281 281 279 223 297 279 277 219 196 121 32 4 338 335 337 344 342 338 333 342 339 341 343 344 344 344 343 318 299 280 274 283 283 289 291 262 252 238 228 233 209 208 214 202 187 170 182 184
305 246 302 293 319 274 282 288 298 212 163 22 12 346 341 339 339 339 339 335 342 346 343 342 341 340 339 336 331 310 291 270 268 268 292 287 272 257 244 235 230 225 211 198 199 194 186 183 184
309 202 314 300 10 293 97 287 271 174 263 13 351 351 344 340 341 340 340 340 344 345 343 345 347 343 341 339 335 319 293 284 272 300 300 299 296 270 233 236 227 202 198 198 199 204 202 183 169
249 326 302 288 168 24 200 33 266 25 334 334 338 342 340 340 341 341 343 340 342 347 346 346 351 351 350 347 343 334 316 304 284 280 280 294 300 269 213 204 208 194 193 187 197 207 208 182 157
310 348 263 37 99 13 247 133 269 213 226 310 328 337 335 340 345 348 349 348 350 355 355 357 0 359 360 360 359 359 352 351 359 355 1 345 358 44 125 151 167 177 175 178 167 170 166 167 167
8 357 340 355 7 240 240 237 261 198 220 240 319 324 325 343 346 351 353 354 356 356 359 2 3 4 4 8 13 15 19 44 47 45 41 40 44 62 88 118 127 139 138 134 147 133 123 118 116
343 102 130 270 315 294 298 240 284 200 221 237 285 285 334 346 348 350 354 356 356 357 359 1 5 8 12 15 21 32 53 65 69 73 74 72 71 78 97 103 106 125 127 120 122 114 110 110 107
299 44 199 106 228 303 249 260 160 230 271 308 327 337 338 344 346 349 355 357 1 1 3 4 8 14 22 27 33 45 64 73 82 87 88 85 86 86 101 100 95 92 121 117 113 112 104 107 104
138 153 78 40 11 311 297 287 260 321 337 328 330 331 337 340 349 356 360 1 7 8 8 14 22 28 35 45 51 57 71 81 85 90 86 89 93 95 95 97 95 77 104 110 106 102 105 100 96
335 329 101 126 150 209 305 280 180 196 263 305 315 333 330 339 350 358 1 5 8 20 20 20 30 36 43 53 60 68 71 85 86 83 84 85 93 94 95 91 91 79 85 94 95 93 97 98 96
138 187 160 129 249 227 238 276 185 172 234 295 333 334 340 355 349 357 354 8 19 18 24 24 34 42 52 62 65 68 75 82 84 84 84 88 89 90 95 97 89 87 82 96 94 92 93 95 95